Wind_Speed
14 14 14 14 13 13 13 14 14 13 14 14 13 14 14 15 16 16 16 16 16 17 18 18 18 18 18 19 19 20 21 23 23 23 23 24 25 26 27 27 28 28 28
14 14 13 13 13 13 13 13 13 13 14 13 13 13 14 15 15 16 16 15 15 16 16 17 17 17 17 18 19 19 20 21 21 22 23 23 24 25 26 27 28 28 29
14 14 13 12 13 13 13 13 13 13 13 13 13 13 14 14 15 15 15 15 15 15 15 15 16 16 16 17 18 18 20 20 20 21 22 24 24 26 27 28 28 28 29
14 13 13 13 13 13 13 13 13 13 13 13 13 13 13 13 13 13 14 14 13 14 15 15 15 16 17 18 17 18 19 20 21 22 22 23 24 25 26 27 27 28 29
14 13 13 13 13 13 12 12 12 12 12 13 13 13 13 13 13 13 13 13 13 13 14 14 15 17 18 18 18 19 20 21 21 22 22 22 23 24 25 26 27 28 29
14 13 13 13 12 12 12 12 12 13 13 13 13 13 13 13 13 14 14 15 15 15 15 15 16 17 18 19 19 19 20 20 21 21 22 21 22 23 24 25 26 28 29
13 13 12 12 12 12 12 12 13 13 13 13 13 13 13 13 14 14 15 16 16 16 16 17 18 19 19 20 20 21 20 21 22 22 22 22 22 23 24 24 25 27 28
13 13 13 12 12 12 13 13 13 13 13 13 13 14 14 14 14 15 15 16 16 16 17 18 19 20 21 21 21 22 22 22 22 22 22 22 22 23 23 24 25 26 27
13 13 14 13 13 13 14 13 13 13 13 14 14 14 14 14 14 15 15 15 16 16 18 19 20 21 21 22 22 22 22 23 23 23 23 23 23 23 24 25 25 25 26
14 13 14 14 14 14 14 14 14 13 14 14 14 14 14 14 15 15 15 16 17 17 18 20 20 21 21 21 22 23 23 24 24 24 23 23 23 24 24 24 25 25 26
14 14 15 15 15 15 14 14 14 13 14 14 14 15 15 15 15 15 16 17 18 18 19 19 19 20 21 22 23 24 24 25 25 24 23 23 23 23 23 24 24 24 25
15 15 16 15 15 14 14 13 13 14 14 15 15 15 15 16 16 16 17 18 19 19 19 19 19 20 21 23 24 24 24 24 23 23 22 23 23 22 22 22 23 24 24
16 16 16 16 15 14 14 13 13 14 14 15 15 15 15 16 16 17 17 17 18 18 18 19 20 21 22 23 23 23 24 23 22 22 21 21 21 21 20 20 20 22 23
17 16 15 15 14 14 14 14 14 15 15 15 15 16 16 16 16 16 16 17 17 17 18 18 19 20 22 22 22 23 24 23 23 22 21 21 20 20 20 19 20 22 23
17 16 15 14 14 14 13 13 13 14 15 14 15 15 15 16 16 17 16 17 17 17 18 19 19 20 21 22 23 23 23 23 23 22 21 21 21 20 20 19 20 21 22
17 16 16 15 15 14 14 13 14 14 14 13 13 13 14 15 15 16 16 17 17 18 18 19 20 21 22 23 23 23 23 23 23 22 21 21 20 20 20 19 19 20 20
17 16 16 15 15 15 14 14 14 14 14 14 13 13 14 15 16 17 17 18 18 18 18 19 21 21 21 22 22 23 23 23 22 21 21 20 20 20 19 19 19 19 19
17 17 17 17 16 16 15 14 14 14 14 14 14 14 15 16 17 17 18 18 19 19 19 20 20 21 21 21 22 22 23 23 22 21 21 20 20 20 20 20 20 19 19
17 17 17 17 16 16 15 14 14 14 14 14 14 14 15 16 17 17 18 18 18 19 19 20 21 21 21 21 22 22 22 23 22 22 21 21 21 21 21 20 20 20 19
17 17 17 17 16 16 15 14 14 14 14 14 14 15 15 16 17 17 18 18 18 19 20 20 20 20 21 22 22 23 23 23 23 22 22 21 21 21 21 21 21 20 19
17 16 16 16 16 16 15 14 14 15 15 15 15 15 15 16 17 18 19 19 19 20 20 20 21 21 21 22 23 23 23 23 23 22 22 21 22 22 22 22 21 20 19
17 17 16 16 15 14 14 14 15 15 15 15 15 15 16 16 17 18 19 19 20 21 21 21 21 22 22 22 23 23 23 23 23 22 22 22 23 23 23 22 21 20 19
17 17 17 16 16 15 15 16 16 16 16 16 16 16 16 16 17 18 19 20 21 21 21 21 22 22 22 23 23 23 23 23 23 23 22 22 22 23 23 22 21 19 18
17 17 16 16 16 16 16 16 16 17 17 16 16 16 17 17 18 19 20 21 21 22 22 22 22 22 22 23 23 23 23 23 23 22 22 23 23 23 22 21 20 19 18
18 18 17 17 17 17 16 17 17 17 17 17 17 18 18 18 19 20 20 20 20 21 21 22 22 22 22 23 23 22 22 21 21 22 22 23 23 22 22 20 20 20 17
19 18 18 18 17 17 17 17 17 18 17 17 18 18 18 18 18 19 19 20 20 21 21 21 22 22 22 22 22 21 21 21 21 22 22 23 23 22 21 20 19 19 17
Wind_Direction
306 304 304 303 303 307 308 312 312 312 311 310 307 300 297 296 295 294 296 296 295 296 295 294 292 291 290 290 289 290 290 287 284 281 278 274 270 268 266 267 267 268 266
304 304 303 303 302 303 306 309 311 312 314 314 312 306 303 300 299 300 301 301 298 300 301 300 298 296 295 294 293 293 294 293 288 282 278 279 277 273 272 271 270 268 267
300 302 303 303 302 302 303 305 308 310 312 313 313 310 309 305 303 306 306 304 304 305 305 305 304 304 302 302 301 299 298 297 294 289 284 282 279 276 273 273 271 270 268
303 301 301 301 305 304 305 307 308 309 310 312 314 312 313 312 308 307 309 310 310 311 310 310 310 310 307 305 303 303 303 302 299 293 288 283 281 279 275 273 272 270 269
304 301 301 302 305 304 304 308 310 310 310 313 316 313 313 314 312 311 311 312 312 312 312 310 311 313 312 309 305 304 304 304 301 297 292 288 286 282 279 276 274 273 272
306 306 307 305 303 303 305 308 310 308 307 312 315 315 314 313 313 312 313 313 312 312 312 311 311 312 312 311 310 309 308 307 303 298 296 292 289 286 283 280 278 276 275
310 311 312 307 303 302 304 306 308 308 306 308 311 313 314 313 312 312 313 312 312 311 311 310 309 310 310 311 311 310 308 307 305 301 298 294 291 288 285 283 281 279 278
310 310 310 308 305 302 303 305 306 304 302 304 308 310 310 312 312 311 309 309 310 312 312 311 311 310 311 310 310 310 309 306 304 303 300 296 293 290 287 285 283 282 282
307 307 307 306 304 303 301 303 305 302 301 302 304 305 307 313 315 314 312 312 311 310 310 311 312 314 315 313 311 311 309 307 305 304 302 298 296 294 291 288 286 286 287
304 303 303 303 302 301 300 301 303 303 303 304 304 303 303 308 312 314 312 313 313 312 311 312 314 315 316 316 314 312 311 310 307 305 303 300 298 295 291 290 289 289 290
298 298 299 300 300 300 299 300 300 301 302 304 305 306 306 307 309 312 313 314 315 313 313 314 315 316 315 315 315 315 314 312 309 306 303 301 300 298 294 291 290 290 290
294 293 295 297 299 298 299 299 299 301 303 303 305 305 306 307 308 312 313 315 315 314 314 315 317 318 318 318 318 318 318 316 313 309 306 303 302 300 296 292 292 292 292
295 293 292 293 293 295 296 296 297 299 302 303 303 304 307 309 311 313 315 317 318 318 317 317 319 321 322 322 322 323 324 322 318 315 312 310 308 305 303 298 297 297 295
295 293 293 293 292 291 294 294 296 298 301 302 303 304 305 307 310 313 317 319 320 321 319 318 320 323 326 326 326 325 325 325 323 320 317 316 314 311 307 303 300 298 297
294 291 291 291 289 290 292 293 295 298 300 301 304 307 307 308 309 312 315 318 321 321 321 321 323 326 327 328 329 328 327 327 326 323 320 319 317 315 312 308 306 304 301
291 289 290 289 287 289 290 292 294 297 301 303 306 309 310 312 312 314 316 318 318 319 320 322 324 326 328 331 332 331 331 330 328 324 321 319 318 317 316 313 310 308 306
289 286 286 283 283 286 288 292 294 296 301 303 306 309 312 314 315 317 319 318 317 317 319 321 323 325 327 330 332 332 332 331 331 329 328 325 322 320 319 318 315 311 309
287 285 283 280 280 283 286 289 291 294 297 300 302 306 310 314 316 318 319 318 316 316 318 320 322 324 325 328 331 332 332 332 332 332 331 330 328 325 324 323 320 317 315
285 282 281 280 281 284 284 285 288 291 295 297 299 305 309 313 316 318 320 320 318 318 319 321 322 325 327 329 330 331 332 333 333 332 331 330 330 330 329 328 325 321 317
283 281 280 279 280 283 284 285 288 292 295 296 298 303 308 312 316 319 321 322 321 320 321 322 324 326 327 329 331 332 333 334 334 334 333 331 330 330 330 330 330 327 321
283 282 281 280 280 280 280 284 289 291 296 297 296 301 307 310 315 319 322 322 322 321 321 322 324 325 327 328 329 330 331 331 331 331 330 330 330 331 331 330 330 328 324
283 282 280 279 279 279 279 282 287 289 293 294 295 302 308 311 315 318 319 319 320 321 321 322 322 322 323 325 326 327 327 328 328 328 328 327 327 329 330 329 328 327 326
282 281 279 277 277 279 280 282 285 286 291 294 295 299 304 308 312 315 318 319 318 318 318 320 321 321 323 324 324 324 325 325 326 326 326 326 327 329 330 330 329 328 327
279 278 277 276 276 279 281 282 284 286 289 290 291 295 301 305 309 313 315 316 318 318 317 318 321 321 322 322 322 322 323 324 325 326 326 326 327 329 329 329 331 330 328
277 276 275 274 275 278 280 281 282 284 286 287 290 293 298 302 307 311 313 314 316 318 319 319 319 319 320 321 321 320 320 322 325 325 325 325 327 330 331 331 334 335 332
275 275 274 274 273 277 280 280 281 283 285 287 290 291 295 300 305 308 311 313 315 316 318 321 323 322 321 321 321 320 320 320 322 324 325 327 329 332 334 334 337 339 338
Height
5774 5772 5771 5770 5768 5766 5765 5762 5760 5758 5756 5753 5751 5749 5747 5745 5743 5741 5738 5736 5734 5733 5731 5729 5727 5725 5723 5721 5719 5718 5716 5714 5713 5712 5711 5709 5708 5708 5708 5708 5708 5708 5709
5771 5769 5767 5766 5765 5763 5761 5759 5757 5755 5752 5750 5747 5745 5743 5740 5738 5736 5734 5731 5730 5728 5726 5724 5721 5719 5717 5716 5714 5712 5710 5708 5706 5705 5703 5702 5701 5700 5699 5699 5699 5699 5699
5767 5766 5764 5763 5761 5759 5758 5756 5754 5752 5749 5747 5744 5741 5739 5736 5734 5731 5729 5727 5725 5723 5721 5719 5717 5714 5712 5710 5708 5706 5704 5702 5700 5698 5696 5695 5693 5692 5692 5691 5690 5690 5690
5764 5763 5761 5759 5758 5756 5754 5752 5750 5748 5746 5743 5741 5738 5735 5733 5730 5728 5726 5724 5722 5719 5717 5715 5712 5710 5708 5706 5703 5701 5699 5696 5694 5692 5690 5688 5686 5685 5684 5683 5682 5682 5682
5761 5759 5757 5756 5754 5752 5751 5749 5747 5745 5743 5740 5738 5735 5732 5729 5727 5725 5723 5720 5718 5716 5713 5711 5708 5706 5703 5701 5699 5696 5693 5690 5687 5685 5683 5681 5679 5677 5676 5675 5674 5673 5673
5757 5755 5753 5752 5750 5749 5747 5745 5744 5742 5740 5737 5735 5732 5729 5726 5724 5722 5719 5717 5715 5712 5710 5707 5704 5702 5699 5696 5693 5690 5688 5685 5682 5679 5676 5674 5672 5670 5669 5667 5666 5665 5664
5754 5752 5750 5748 5747 5745 5744 5742 5740 5738 5736 5734 5732 5729 5726 5724 5721 5718 5716 5713 5711 5708 5706 5703 5700 5697 5694 5691 5688 5685 5682 5679 5676 5673 5670 5667 5665 5663 5661 5659 5657 5656 5655
5750 5749 5747 5745 5744 5742 5740 5738 5736 5734 5733 5731 5729 5726 5724 5721 5718 5715 5712 5709 5707 5704 5702 5699 5696 5693 5689 5686 5683 5680 5677 5673 5670 5667 5664 5661 5658 5655 5653 5651 5649 5647 5645
5747 5746 5744 5742 5741 5739 5737 5735 5733 5731 5729 5727 5725 5723 5720 5718 5715 5712 5709 5706 5703 5700 5698 5695 5691 5688 5684 5680 5677 5674 5670 5667 5663 5660 5657 5653 5650 5648 5645 5643 5641 5639 5636
5744 5742 5740 5739 5737 5735 5733 5731 5730 5728 5726 5724 5722 5719 5717 5714 5711 5708 5705 5702 5699 5696 5693 5690 5686 5683 5679 5675 5671 5668 5664 5660 5656 5652 5649 5646 5643 5640 5637 5634 5632 5630 5628
5740 5738 5737 5735 5733 5731 5729 5728 5726 5724 5722 5720 5718 5716 5713 5710 5707 5704 5701 5698 5695 5691 5688 5685 5682 5678 5674 5670 5666 5662 5657 5653 5648 5645 5641 5638 5635 5632 5629 5626 5624 5622 5619
5736 5734 5732 5731 5729 5727 5725 5724 5722 5720 5719 5716 5714 5711 5709 5706 5703 5700 5697 5694 5690 5687 5684 5680 5677 5673 5669 5665 5660 5656 5651 5646 5641 5637 5634 5630 5627 5624 5621 5618 5616 5613 5611
5731 5729 5727 5726 5724 5722 5721 5720 5718 5716 5714 5712 5710 5707 5704 5701 5698 5696 5693 5690 5686 5683 5679 5676 5672 5668 5664 5660 5655 5650 5645 5640 5636 5631 5627 5624 5620 5616 5613 5611 5609 5606 5603
5726 5724 5722 5721 5719 5718 5717 5715 5714 5712 5710 5708 5705 5702 5700 5697 5694 5691 5688 5685 5682 5679 5675 5672 5668 5664 5659 5654 5649 5645 5640 5635 5630 5626 5621 5617 5613 5610 5607 5604 5602 5599 5596
5720 5719 5717 5716 5715 5714 5712 5711 5709 5708 5706 5703 5701 5698 5695 5693 5690 5687 5684 5681 5678 5675 5671 5667 5663 5659 5655 5650 5645 5640 5635 5630 5625 5620 5616 5612 5608 5604 5601 5598 5595 5592 5589
5715 5714 5712 5711 5710 5709 5708 5706 5705 5703 5701 5699 5696 5694 5691 5689 5686 5683 5680 5677 5674 5670 5667 5663 5659 5655 5650 5645 5640 5635 5630 5625 5620 5615 5611 5607 5603 5599 5596 5593 5590 5586 5583
5710 5708 5707 5706 5705 5704 5703 5701 5700 5698 5696 5694 5692 5690 5688 5685 5682 5679 5676 5673 5669 5666 5662 5659 5654 5650 5646 5641 5636 5631 5626 5621 5616 5611 5606 5602 5598 5595 5591 5588 5584 5581 5578
5704 5703 5702 5701 5700 5699 5698 5696 5695 5693 5692 5690 5688 5686 5684 5681 5678 5675 5671 5668 5665 5661 5658 5654 5650 5646 5641 5637 5632 5627 5622 5617 5612 5607 5603 5598 5594 5590 5587 5583 5579 5576 5573
5698 5697 5696 5695 5694 5693 5692 5691 5690 5689 5687 5685 5684 5682 5680 5677 5674 5671 5667 5664 5660 5657 5654 5650 5646 5641 5637 5632 5627 5623 5618 5613 5608 5604 5599 5595 5591 5587 5583 5579 5575 5571 5568
5693 5692 5691 5690 5689 5688 5687 5687 5686 5684 5683 5681 5680 5678 5675 5673 5670 5667 5663 5660 5657 5653 5649 5646 5642 5637 5633 5628 5623 5619 5614 5609 5604 5600 5595 5591 5587 5583 5579 5575 5571 5567 5563
5687 5686 5685 5684 5684 5683 5682 5682 5681 5680 5678 5677 5675 5673 5671 5668 5666 5663 5659 5656 5652 5649 5645 5641 5637 5633 5628 5624 5619 5614 5610 5605 5601 5596 5592 5588 5584 5580 5576 5571 5567 5563 5559
5681 5680 5680 5679 5678 5677 5677 5677 5676 5675 5674 5672 5670 5668 5666 5664 5661 5658 5655 5652 5648 5644 5640 5637 5633 5628 5624 5620 5615 5610 5606 5601 5597 5593 5589 5584 5580 5576 5572 5567 5563 5559 5555
5675 5675 5674 5673 5673 5673 5672 5672 5671 5670 5668 5667 5666 5664 5662 5659 5657 5654 5651 5647 5643 5640 5636 5632 5628 5624 5619 5615 5611 5606 5602 5597 5593 5589 5584 5580 5576 5572 5568 5563 5559 5555 5551
5670 5669 5668 5668 5668 5667 5666 5666 5665 5664 5663 5662 5660 5659 5657 5654 5652 5649 5646 5642 5639 5635 5631 5627 5623 5619 5614 5610 5606 5601 5597 5593 5588 5584 5580 5576 5572 5568 5563 5559 5555 5551 5547
5664 5663 5663 5662 5662 5661 5661 5660 5659 5658 5657 5656 5655 5653 5651 5649 5646 5644 5640 5637 5634 5630 5626 5622 5618 5613 5609 5605 5600 5596 5592 5588 5584 5580 5576 5572 5568 5564 5559 5555 5551 5547 5543
5657 5657 5657 5656 5656 5655 5655 5654 5653 5652 5651 5650 5648 5647 5645 5643 5641 5638 5635 5632 5628 5625 5621 5616 5612 5608 5603 5599 5595 5591 5587 5584 5580 5576 5572 5568 5564 5560 5556 5551 5548 5544 5540